When you browse on this site, cookies collect data to enhance your experience and personalize the content and advertising you see.
Visit our Privacy Policy to learn more. By continuing to use the site, you agree to this use of cookies and data.
  • In Denmark
  • List of Countries
  • For 7 days
  • Water Temperature
  • Satellite Maps
  • Weather Map
  • Weather Widgets
  • user-avatar
    Login

    Hourly Weather Kozlakovka

    Today, 17 November, Saturday

    Time Temperature Precipitation Wind Pressure Humidity
    00:00 -6°C° 0 mm 3 mps 764 mmHg 35%
    01:00 -5°C° 0 mm 2 mps 763 mmHg 35%
    02:00 -5°C° 0 mm 2 mps 763 mmHg 35%
    03:00 -4°C° 0 mm 1 mps 763 mmHg 34%
    04:00 -4°C° 0 mm 1 mps 763 mmHg 33%
    05:00 -4°C° 0 mm 1 mps 763 mmHg 33%
    06:00 -4°C° 0 mm 1 mps 762 mmHg 32%
    07:00 -3°C° 0 mm 1 mps 762 mmHg 31%
    08:00 -2°C° 0 mm 1 mps 762 mmHg 29%
    09:00 -2°C° 0 mm 1 mps 761 mmHg 27%
    10:00 -1°C° 0 mm 1 mps 761 mmHg 24%
    11:00 +1°C° 0 mm 1 mps 761 mmHg 22%
    12:00 +2°C° 0 mm 1 mps 760 mmHg 19%
    13:00 +2°C° 0 mm 1 mps 760 mmHg 20%
    14:00 +2°C° 0 mm 1 mps 759 mmHg 22%
    15:00 +1°C° 0 mm 1 mps 759 mmHg 23%
    16:00 +1°C° 0 mm 1 mps 758 mmHg 24%
    17:00 0°C° 0 mm 1 mps 758 mmHg 25%
    18:00 -3°C° 0 mm 2 mps 758 mmHg 26%
    19:00 -3°C° 0 mm 2 mps 757 mmHg 26%
    20:00 -3°C° 0 mm 2 mps 757 mmHg 26%
    21:00 -3°C° 0 mm 2 mps 756 mmHg 26%
    22:00 -3°C° 0 mm 2 mps 756 mmHg 26%
    23:00 -3°C° 0 mm 2 mps 755 mmHg 26%

    Tomorrow, 18 November, Sunday

    Time Temperature Precipitation Wind Pressure Humidity
    00:00 -4°C° 0 mm 2 mps 755 mmHg 26%
    01:00 -4°C° 0 mm 2 mps 754 mmHg 26%
    02:00 -5°C° 0 mm 3 mps 754 mmHg 26%
    03:00 -5°C° 0 mm 3 mps 754 mmHg 26%
    04:00 -5°C° 0 mm 3 mps 753 mmHg 26%
    05:00 -5°C° 0 mm 3 mps 753 mmHg 26%
    06:00 -5°C° 0 mm 3 mps 753 mmHg 26%
    07:00 -5°C° 0 mm 3 mps 752 mmHg 25%
    08:00 -5°C° 0 mm 3 mps 752 mmHg 25%
    09:00 -3°C° 0 mm 2 mps 752 mmHg 24%
    10:00 -2°C° 0 mm 3 mps 752 mmHg 23%
    11:00 -1°C° 0 mm 3 mps 752 mmHg 21%
    12:00 0°C° 0 mm 3 mps 752 mmHg 20%
    13:00 +1°C° 0 mm 2 mps 752 mmHg 22%
    14:00 +1°C° 0 mm 2 mps 752 mmHg 24%
    15:00 +1°C° 0 mm 2 mps 752 mmHg 27%
    16:00 -1°C° 0 mm 2 mps 752 mmHg 29%
    17:00 -2°C° 0 mm 2 mps 752 mmHg 32%
    18:00 -3°C° 0 mm 2 mps 752 mmHg 34%
    19:00 -3°C° 0 mm 2 mps 752 mmHg 35%
    20:00 -1°C° 0 mm 1 mps 752 mmHg 36%
    21:00 -1°C° 0 mm 1 mps 752 mmHg 37%
    22:00 -1°C° 0 mm 1 mps 752 mmHg 38%
    23:00 -1°C° 0 mm 1 mps 753 mmHg 39%

    Day after tomorrow, 19 November, Monday

    Time Temperature Precipitation Wind Pressure Humidity
    00:00 -2°C° 0 mm 1 mps 753 mmHg 39%
    01:00 -2°C° 0 mm 1 mps 753 mmHg 40%
    02:00 -3°C° 0 mm 0 mps 753 mmHg 41%
    03:00 -3°C° 0 mm 0 mps 753 mmHg 41%
    04:00 -3°C° 0 mm 0 mps 753 mmHg 42%
    05:00 -3°C° 0 mm 0 mps 754 mmHg 42%
    06:00 -3°C° 0 mm 0 mps 754 mmHg 43%
    07:00 -3°C° 0 mm 0 mps 754 mmHg 41%
    08:00 -2°C° 0 mm 0 mps 755 mmHg 40%
    09:00 -2°C° 0 mm 0 mps 755 mmHg 39%
    10:00 -1°C° 0 mm 0 mps 755 mmHg 36%
    11:00 +1°C° 0 mm 1 mps 755 mmHg 34%
    12:00 +2°C° 0 mm 1 mps 756 mmHg 31%
    13:00 +2°C° 0 mm 1 mps 756 mmHg 33%
    14:00 +2°C° 0 mm 1 mps 756 mmHg 34%
    15:00 +1°C° 0 mm 1 mps 756 mmHg 35%
    16:00 +1°C° 0 mm 1 mps 756 mmHg 37%
    17:00 0°C° 0 mm 1 mps 756 mmHg 39%
    18:00 -1°C° 0 mm 1 mps 756 mmHg 41%
    19:00 -1°C° 0 mm 1 mps 756 mmHg 41%
    20:00 -1°C° 0 mm 1 mps 756 mmHg 41%
    21:00 -1°C° 0 mm 1 mps 756 mmHg 41%
    22:00 -1°C° 0 mm 1 mps 757 mmHg 41%
    23:00 -1°C° 0 mm 1 mps 757 mmHg 41%

    20 November, Tuesday

    Time Temperature Precipitation Wind Pressure Humidity
    00:00 -1°C° 0 mm 1 mps 757 mmHg 41%
    01:00 -2°C° 0 mm 1 mps 757 mmHg 41%
    02:00 -4°C° 0 mm 2 mps 757 mmHg 41%
    03:00 -4°C° 0 mm 2 mps 757 mmHg 41%
    04:00 -4°C° 0 mm 2 mps 757 mmHg 40%
    05:00 -4°C° 0 mm 2 mps 756 mmHg 40%
    06:00 -4°C° 0 mm 2 mps 756 mmHg 40%
    07:00 -4°C° 0 mm 2 mps 756 mmHg 38%
    08:00 -3°C° 0 mm 2 mps 756 mmHg 36%
    09:00 -3°C° 0 mm 2 mps 756 mmHg 34%
    10:00 -2°C° 0 mm 3 mps 756 mmHg 32%
    11:00 -2°C° 0 mm 3 mps 756 mmHg 30%
    12:00 -1°C° 0 mm 3 mps 755 mmHg 27%
    13:00 -1°C° 0 mm 3 mps 755 mmHg 28%
    14:00 -1°C° 0 mm 3 mps 754 mmHg 29%
    15:00 -1°C° 0 mm 3 mps 754 mmHg 30%
    16:00 -1°C° 0 mm 3 mps 754 mmHg 31%
    17:00 -2°C° 0 mm 3 mps 753 mmHg 32%
    18:00 -3°C° 0 mm 4 mps 753 mmHg 33%
    19:00 -3°C° 0 mm 4 mps 752 mmHg 34%
    20:00 -2°C° 0 mm 3 mps 752 mmHg 35%
    21:00 -2°C° 0 mm 3 mps 751 mmHg 36%
    22:00 -3°C° 0.2 mm 4 mps 751 mmHg 47%
    23:00 -4°C° 0.2 mm 4 mps 750 mmHg 57%

    21 November, Wednesday

    Time Temperature Precipitation Wind Pressure Humidity
    00:00 -4°C° 0.2 mm 4 mps 750 mmHg 67%
    01:00 -4°C° 0.4 mm 4 mps 749 mmHg 74%
    02:00 -5°C° 0.4 mm 4 mps 748 mmHg 81%
    03:00 -5°C° 0.4 mm 4 mps 748 mmHg 88%
    04:00 -4°C° 0.1 mm 4 mps 747 mmHg 87%
    05:00 -4°C° 0.1 mm 4 mps 746 mmHg 86%
    06:00 -4°C° 0.1 mm 4 mps 746 mmHg 86%
    07:00 -4°C° 0.1 mm 4 mps 745 mmHg 85%
    08:00 -4°C° 0.1 mm 4 mps 745 mmHg 84%
    09:00 -4°C° 0.1 mm 4 mps 745 mmHg 83%
    10:00 -4°C° 0.1 mm 4 mps 744 mmHg 82%
    11:00 -4°C° 0.1 mm 4 mps 744 mmHg 81%
    12:00 -4°C° 0.1 mm 4 mps 744 mmHg 80%
    13:00 -4°C° 0.1 mm 4 mps 744 mmHg 81%
    14:00 -4°C° 0.1 mm 4 mps 743 mmHg 81%
    15:00 -4°C° 0.1 mm 4 mps 743 mmHg 82%
    16:00 -4°C° 0.1 mm 4 mps 743 mmHg 84%
    17:00 -4°C° 0.1 mm 4 mps 744 mmHg 86%
    18:00 -4°C° 0.1 mm 4 mps 744 mmHg 88%
    19:00 -4°C° 0.1 mm 4 mps 744 mmHg 88%
    20:00 -4°C° 0.1 mm 4 mps 744 mmHg 88%
    21:00 -5°C° 0.1 mm 5 mps 744 mmHg 89%
    22:00 -6°C° 0 mm 5 mps 744 mmHg 88%
    23:00 -5°C° 0 mm 4 mps 744 mmHg 87%

    22 November, Thursday

    Time Temperature Precipitation Wind Pressure Humidity
    00:00 -5°C° 0 mm 4 mps 744 mmHg 86%
    01:00 -5°C° 0 mm 4 mps 744 mmHg 86%
    02:00 -7°C° 0 mm 4 mps 744 mmHg 87%
    03:00 -7°C° 0 mm 4 mps 744 mmHg 87%
    04:00 -5°C° 0 mm 4 mps 745 mmHg 86%
    05:00 -5°C° 0 mm 4 mps 745 mmHg 84%
    06:00 -5°C° 0 mm 4 mps 745 mmHg 83%
    07:00 -5°C° 0 mm 4 mps 745 mmHg 81%
    08:00 -6°C° 0 mm 5 mps 745 mmHg 80%
    09:00 -5°C° 0 mm 5 mps 745 mmHg 79%
    10:00 -5°C° 0 mm 5 mps 745 mmHg 74%
    11:00 -5°C° 0 mm 5 mps 745 mmHg 69%
    12:00 -5°C° 0 mm 5 mps 745 mmHg 64%
    13:00 -6°C° 0 mm 5 mps 745 mmHg 65%
    14:00 -6°C° 0 mm 5 mps 745 mmHg 65%
    15:00 -5°C° 0 mm 4 mps 745 mmHg 66%
    16:00 -7°C° 0 mm 4 mps 746 mmHg 70%
    17:00 -7°C° 0 mm 4 mps 746 mmHg 73%
    18:00 -8°C° 0 mm 4 mps 746 mmHg 77%
    19:00 -8°C° 0 mm 4 mps 746 mmHg 80%
    20:00 -8°C° 0 mm 4 mps 746 mmHg 82%
    21:00 -8°C° 0 mm 4 mps 746 mmHg 84%
    22:00 -8°C° 0 mm 5 mps 746 mmHg 84%
    23:00 -8°C° 0 mm 5 mps 745 mmHg 84%
    Show more